JAF5NB LEMG-EBBR

Flight info

Callsign JAF5NB
Flight time 2h 21m
Altitude 34000
Route BLN N865 VTB N867 DGO N858 ABRIX DCT CNA DCT ADABI DCT BOKNO UN858 VANAD UN874 BAMES UT191 PODEM UN873 BAZOS DCT BELDI DCT VEKIN Z173 ARVOL
Aircraft B738/M-SDE2E3FGHIRWXY/LB1

Departure

Time 2026-05-07 13:14
Airport Málaga-Costa del Sol Airport (LEMG)

Arrival

Time 2026-05-07 15:35
Airport Brussels Airport (EBBR)
Time Latitude Longitude Altitude Speed Heading
2026-05-07 12:45 36.67798 -4.49654 41 ft 0 kts 132°
2026-05-07 13:04 36.67804 -4.49662 40 ft 3 kts 131°
2026-05-07 13:04 36.67817 -4.49680 36 ft 3 kts 133°
2026-05-07 13:04 36.67831 -4.49699 39 ft 3 kts 131°
2026-05-07 13:05 36.67839 -4.49711 37 ft 1 kts 89°
2026-05-07 13:05 36.67836 -4.49721 41 ft 1 kts 51°
2026-05-07 13:05 36.67831 -4.49729 41 ft 1 kts 45°
2026-05-07 13:05 36.67825 -4.49737 41 ft 1 kts 44°
2026-05-07 13:06 36.67821 -4.49741 39 ft 3 kts 44°
2026-05-07 13:06 36.67808 -4.49757 39 ft 2 kts 44°
2026-05-07 13:06 36.67795 -4.49767 41 ft 2 kts
2026-05-07 13:06 36.67780 -4.49766 38 ft 2 kts 333°
2026-05-07 13:07 36.67767 -4.49754 39 ft 2 kts 314°
2026-05-07 13:07 36.67765 -4.49751 41 ft 0 kts 314°
2026-05-07 13:08 36.67792 -4.49788 41 ft 13 kts 310°
2026-05-07 13:08 36.67798 -4.49901 41 ft 14 kts 289°
2026-05-07 13:08 36.67858 -4.49987 41 ft 13 kts 311°
2026-05-07 13:09 36.67916 -4.50073 41 ft 13 kts 295°
2026-05-07 13:09 36.67896 -4.50178 43 ft 13 kts 288°
2026-05-07 13:09 36.67956 -4.50266 43 ft 15 kts 312°
2026-05-07 13:09 36.68043 -4.50388 43 ft 23 kts 311°
2026-05-07 13:10 36.68157 -4.50547 43 ft 24 kts 311°
2026-05-07 13:10 36.68266 -4.50700 44 ft 23 kts 310°
2026-05-07 13:10 36.68370 -4.50846 48 ft 22 kts 311°
2026-05-07 13:10 36.68469 -4.50986 51 ft 21 kts 313°
2026-05-07 13:11 36.68485 -4.51150 53 ft 21 kts 253°
2026-05-07 13:11 36.68408 -4.51196 57 ft 8 kts 125°
2026-05-07 13:11 36.68407 -4.51194 57 ft 0 kts 124°
2026-05-07 13:12 36.68401 -4.51186 59 ft 1 kts 133°
2026-05-07 13:12 36.68401 -4.51185 59 ft 0 kts 133°
2026-05-07 13:13 36.68398 -4.51182 54 ft 6 kts 132°
2026-05-07 13:13 36.68236 -4.50956 55 ft 77 kts 131°
2026-05-07 13:13 36.67698 -4.50197 56 ft 154 kts 131°
2026-05-07 13:14 36.66928 -4.49132 830 ft 161 kts 133°
2026-05-07 13:14 36.66152 -4.48129 1686 ft 172 kts 138°
2026-05-07 13:14 36.65200 -4.47067 2339 ft 189 kts 139°
2026-05-07 13:14 36.64211 -4.45930 2953 ft 201 kts 138°
2026-05-07 13:15 36.63182 -4.44678 3594 ft 207 kts 137°
2026-05-07 13:15 36.62153 -4.43416 4221 ft 209 kts 137°
2026-05-07 13:15 36.61114 -4.42143 4840 ft 211 kts 137°
2026-05-07 13:15 36.60072 -4.40872 5459 ft 213 kts 137°
2026-05-07 13:16 36.58997 -4.39564 6115 ft 214 kts 137°
2026-05-07 13:16 36.57928 -4.38265 6729 ft 215 kts 136°
2026-05-07 13:16 36.57113 -4.36731 7292 ft 220 kts 107°
2026-05-07 13:16 36.57100 -4.34853 7912 ft 220 kts 73°
2026-05-07 13:17 36.57671 -4.33079 8571 ft 217 kts 66°
2026-05-07 13:17 36.58286 -4.31368 9198 ft 215 kts 65°
2026-05-07 13:17 36.58896 -4.29677 9825 ft 213 kts 65°
2026-05-07 13:17 36.59499 -4.27997 10413 ft 211 kts 65°
2026-05-07 13:18 36.60094 -4.26332 11001 ft 210 kts 65°
2026-05-07 13:18 36.60577 -4.25300 11374 ft 208 kts 43°
2026-05-07 13:18 36.61833 -4.24406 11612 ft 217 kts 10°
2026-05-07 13:18 36.63367 -4.23910 11749 ft 241 kts 13°
2026-05-07 13:19 36.65054 -4.23265 11971 ft 265 kts 15°
2026-05-07 13:19 36.66890 -4.22517 12169 ft 290 kts 16°
2026-05-07 13:19 36.68884 -4.21673 12369 ft 315 kts 17°
2026-05-07 13:19 36.71033 -4.20739 12561 ft 339 kts 17°
2026-05-07 13:20 36.73326 -4.19723 12738 ft 361 kts 18°
2026-05-07 13:20 36.75743 -4.18637 13137 ft 375 kts 18°
2026-05-07 13:20 36.78220 -4.17511 13794 ft 381 kts 18°
2026-05-07 13:20 36.80717 -4.16371 14495 ft 383 kts 18°
2026-05-07 13:21 36.83225 -4.15223 15187 ft 386 kts 17°
2026-05-07 13:21 36.85756 -4.14063 15864 ft 389 kts 17°
2026-05-07 13:21 36.88307 -4.12895 16504 ft 392 kts 17°
2026-05-07 13:21 36.90882 -4.11716 17168 ft 396 kts 17°
2026-05-07 13:22 36.93475 -4.10527 17816 ft 399 kts 17°
2026-05-07 13:22 36.96094 -4.09326 18437 ft 402 kts 16°
2026-05-07 13:22 36.98728 -4.08116 18969 ft 406 kts 16°
2026-05-07 13:22 37.01388 -4.06894 19508 ft 408 kts 15°
2026-05-07 13:23 37.04064 -4.05664 20047 ft 411 kts 15°
2026-05-07 13:23 37.06763 -4.04423 20574 ft 414 kts 14°
2026-05-07 13:23 37.09480 -4.03171 21113 ft 417 kts 14°
2026-05-07 13:23 37.12213 -4.01911 21631 ft 420 kts 13°
2026-05-07 13:24 37.14966 -4.00642 22129 ft 423 kts 13°
2026-05-07 13:24 37.17739 -3.99363 22626 ft 426 kts 13°
2026-05-07 13:24 37.20542 -3.98144 23116 ft 426 kts 10°
2026-05-07 13:24 37.23381 -3.97057 23574 ft 427 kts
2026-05-07 13:25 37.26243 -3.96023 23992 ft 429 kts
2026-05-07 13:25 37.29119 -3.94995 24378 ft 431 kts
2026-05-07 13:25 37.32006 -3.93953 24818 ft 433 kts
2026-05-07 13:25 37.34903 -3.92895 25238 ft 435 kts
2026-05-07 13:26 37.37812 -3.91820 25624 ft 437 kts
2026-05-07 13:26 37.40736 -3.90732 26004 ft 439 kts
2026-05-07 13:26 37.43673 -3.89634 26359 ft 441 kts
2026-05-07 13:26 37.46621 -3.88528 26705 ft 443 kts
2026-05-07 13:27 37.49581 -3.87416 27056 ft 445 kts
2026-05-07 13:27 37.52557 -3.86296 27404 ft 447 kts
2026-05-07 13:27 37.55543 -3.85173 27741 ft 449 kts
2026-05-07 13:27 37.58546 -3.84043 28056 ft 451 kts
2026-05-07 13:28 37.61562 -3.82907 28359 ft 453 kts
2026-05-07 13:28 37.64582 -3.81768 28695 ft 454 kts
2026-05-07 13:28 37.67611 -3.80625 28999 ft 456 kts
2026-05-07 13:28 37.70658 -3.79476 29294 ft 459 kts
2026-05-07 13:29 37.73719 -3.78319 29638 ft 459 kts
2026-05-07 13:29 37.76768 -3.77162 30120 ft 456 kts
2026-05-07 13:29 37.79795 -3.76012 30526 ft 453 kts
2026-05-07 13:29 37.82819 -3.74866 30792 ft 455 kts
2026-05-07 13:30 37.85855 -3.73717 31025 ft 457 kts
2026-05-07 13:30 37.88903 -3.72563 31306 ft 457 kts
2026-05-07 13:30 37.91949 -3.71406 31598 ft 457 kts
2026-05-07 13:30 37.94996 -3.70247 31903 ft 457 kts
2026-05-07 13:31 37.98043 -3.69087 32199 ft 457 kts
2026-05-07 13:31 38.01084 -3.67928 32522 ft 456 kts
2026-05-07 13:31 38.04127 -3.66768 32797 ft 457 kts
2026-05-07 13:31 38.07171 -3.65607 33045 ft 457 kts
2026-05-07 13:32 38.10224 -3.64442 33320 ft 458 kts
2026-05-07 13:32 38.13274 -3.63277 33607 ft 458 kts
2026-05-07 13:32 38.16329 -3.62230 33875 ft 450 kts
2026-05-07 13:32 38.19413 -3.61788 33923 ft 444 kts 356°
2026-05-07 13:33 38.25586 -3.61346 33936 ft 444 kts 355°
2026-05-07 13:33 38.31759 -3.60873 33940 ft 445 kts 356°
2026-05-07 13:34 38.41017 -3.60009 33928 ft 445 kts 356°
2026-05-07 13:35 38.47195 -3.59403 33932 ft 445 kts 357°
2026-05-07 13:35 38.53374 -3.58795 33934 ft 445 kts 357°
2026-05-07 13:36 38.59558 -3.58189 33929 ft 446 kts 357°
2026-05-07 13:36 38.65760 -3.57581 33933 ft 447 kts 357°
2026-05-07 13:37 38.71969 -3.56971 33938 ft 448 kts 358°
2026-05-07 13:37 38.78193 -3.56357 33934 ft 449 kts 358°
2026-05-07 13:38 38.84441 -3.55741 33937 ft 451 kts 358°
2026-05-07 13:38 38.90707 -3.55122 33931 ft 452 kts 358°
2026-05-07 13:39 38.96993 -3.54499 33925 ft 454 kts 358°
2026-05-07 13:39 39.03294 -3.53875 33929 ft 454 kts 358°
2026-05-07 13:40 39.09600 -3.53254 33927 ft 455 kts 358°
2026-05-07 13:40 39.15914 -3.52630 33931 ft 455 kts 359°
2026-05-07 13:41 39.22229 -3.52005 33930 ft 455 kts 359°
2026-05-07 13:41 39.28549 -3.51378 33926 ft 455 kts 359°
2026-05-07 13:42 39.34870 -3.50749 33931 ft 456 kts 359°
2026-05-07 13:42 39.41196 -3.50119 33929 ft 456 kts 359°
2026-05-07 13:43 39.47525 -3.49488 33931 ft 456 kts 359°
2026-05-07 13:43 39.53853 -3.48855 33928 ft 457 kts 360°
2026-05-07 13:44 39.60199 -3.48219 33928 ft 457 kts 360°
2026-05-07 13:44 39.66555 -3.47575 33922 ft 458 kts
2026-05-07 13:45 39.72914 -3.46928 33933 ft 459 kts
2026-05-07 13:45 39.79286 -3.46236 33919 ft 461 kts
2026-05-07 13:46 39.85655 -3.45047 33933 ft 463 kts
2026-05-07 13:46 39.92025 -3.43685 33929 ft 464 kts
2026-05-07 13:47 39.98410 -3.42354 33931 ft 465 kts
2026-05-07 13:47 40.04809 -3.41060 33931 ft 466 kts
2026-05-07 13:48 40.11227 -3.39774 33935 ft 468 kts
2026-05-07 13:48 40.17668 -3.38480 33933 ft 467 kts
2026-05-07 13:49 40.24095 -3.37185 33931 ft 468 kts
2026-05-07 13:49 40.30521 -3.35887 33939 ft 467 kts
2026-05-07 13:50 40.36950 -3.34587 33940 ft 467 kts
2026-05-07 13:50 40.43376 -3.33284 33945 ft 467 kts
2026-05-07 13:51 40.49815 -3.31976 33939 ft 468 kts
2026-05-07 13:51 40.56259 -3.30665 33943 ft 469 kts
2026-05-07 13:52 40.62711 -3.29349 33948 ft 470 kts
2026-05-07 13:52 40.69181 -3.28027 33946 ft 471 kts
2026-05-07 13:53 40.75657 -3.26701 33938 ft 471 kts
2026-05-07 13:53 40.82139 -3.25371 33950 ft 472 kts
2026-05-07 13:54 40.88636 -3.24010 33942 ft 473 kts
2026-05-07 13:54 40.95133 -3.22546 33946 ft 474 kts
2026-05-07 13:55 41.01633 -3.21064 33944 ft 474 kts
2026-05-07 13:55 41.08134 -3.19593 33943 ft 474 kts
2026-05-07 13:56 41.14647 -3.18123 33943 ft 475 kts
2026-05-07 13:56 41.20112 -3.16888 33940 ft 476 kts
2026-05-07 13:57 41.26634 -3.15411 33930 ft 476 kts
2026-05-07 13:57 41.33167 -3.13928 33928 ft 476 kts
2026-05-07 13:58 41.39700 -3.12442 33919 ft 477 kts
2026-05-07 13:58 41.46243 -3.10950 33925 ft 477 kts
2026-05-07 13:59 41.52782 -3.09459 33926 ft 477 kts
2026-05-07 13:59 41.59328 -3.07979 33912 ft 477 kts
2026-05-07 14:00 41.65875 -3.06497 33906 ft 477 kts
2026-05-07 14:00 41.72427 -3.05009 33918 ft 477 kts
2026-05-07 14:01 41.78974 -3.03511 33923 ft 478 kts
2026-05-07 14:01 41.85528 -3.02003 33919 ft 478 kts
2026-05-07 14:02 41.92088 -3.00489 33915 ft 478 kts
2026-05-07 14:02 41.98653 -2.98970 33926 ft 479 kts
2026-05-07 14:03 42.05228 -2.97448 33918 ft 480 kts
2026-05-07 14:03 42.11816 -2.95920 33926 ft 481 kts
2026-05-07 14:04 42.18409 -2.94387 33927 ft 481 kts
2026-05-07 14:04 42.25011 -2.92849 33910 ft 482 kts
2026-05-07 14:05 42.31624 -2.91304 33919 ft 482 kts
2026-05-07 14:05 42.38239 -2.89757 33922 ft 482 kts
2026-05-07 14:06 42.44830 -2.87966 33898 ft 484 kts 17°
2026-05-07 14:06 42.50899 -2.84092 33931 ft 484 kts 30°
2026-05-07 14:07 42.56748 -2.79539 33910 ft 485 kts 30°
2026-05-07 14:07 42.62631 -2.75021 33920 ft 486 kts 30°
2026-05-07 14:08 42.68543 -2.70529 33911 ft 487 kts 30°
2026-05-07 14:08 42.74467 -2.66034 33923 ft 488 kts 30°
2026-05-07 14:09 42.80401 -2.61520 33899 ft 489 kts 30°
2026-05-07 14:09 42.86342 -2.56988 33910 ft 489 kts 30°
2026-05-07 14:10 42.92285 -2.52442 33915 ft 490 kts 30°
2026-05-07 14:10 42.98236 -2.47881 33900 ft 490 kts 30°
2026-05-07 14:11 43.04182 -2.43316 33892 ft 490 kts 30°
2026-05-07 14:11 43.10118 -2.38744 33895 ft 490 kts 30°
2026-05-07 14:12 43.16044 -2.34168 33910 ft 488 kts 30°
2026-05-07 14:12 43.21963 -2.29589 33890 ft 487 kts 30°
2026-05-07 14:13 43.27857 -2.25021 33922 ft 486 kts 30°
2026-05-07 14:13 43.33748 -2.20444 33907 ft 486 kts 30°
2026-05-07 14:14 43.39625 -2.15868 33918 ft 486 kts 30°
2026-05-07 14:14 43.45503 -2.11280 33915 ft 486 kts 30°
2026-05-07 14:15 43.51384 -2.06680 33915 ft 486 kts 30°
2026-05-07 14:15 43.57271 -2.02063 33916 ft 487 kts 30°
2026-05-07 14:16 43.63168 -1.97430 33923 ft 488 kts 30°
2026-05-07 14:16 43.69072 -1.92780 33913 ft 489 kts 30°
2026-05-07 14:17 43.74985 -1.88113 33931 ft 490 kts 30°
2026-05-07 14:17 43.80902 -1.83430 33936 ft 490 kts 30°
2026-05-07 14:18 43.86833 -1.78726 33924 ft 491 kts 30°
2026-05-07 14:18 43.92757 -1.74016 33927 ft 491 kts 30°
2026-05-07 14:19 43.98694 -1.69285 33934 ft 491 kts 30°
2026-05-07 14:19 44.04621 -1.64550 33938 ft 491 kts 30°
2026-05-07 14:20 44.10544 -1.59807 33934 ft 491 kts 30°
2026-05-07 14:20 44.16470 -1.55051 33939 ft 491 kts 30°
2026-05-07 14:21 44.22381 -1.50296 33934 ft 490 kts 30°
2026-05-07 14:21 44.28286 -1.45536 33944 ft 490 kts 30°
2026-05-07 14:22 44.34187 -1.40766 33945 ft 490 kts 30°
2026-05-07 14:22 44.40081 -1.35992 33943 ft 489 kts 30°
2026-05-07 14:23 44.45960 -1.31218 33938 ft 489 kts 30°
2026-05-07 14:23 44.51839 -1.26432 33945 ft 489 kts 30°
2026-05-07 14:24 44.57714 -1.21640 33950 ft 489 kts 30°
2026-05-07 14:24 44.63591 -1.16834 33945 ft 489 kts 30°
2026-05-07 14:25 44.69461 -1.12022 33955 ft 489 kts 30°
2026-05-07 14:25 44.75331 -1.07199 33966 ft 488 kts 30°
2026-05-07 14:26 44.81200 -1.02365 33956 ft 489 kts 30°
2026-05-07 14:26 44.87069 -0.97520 33958 ft 488 kts 30°
2026-05-07 14:27 44.92931 -0.92668 33970 ft 488 kts 30°
2026-05-07 14:27 44.98791 -0.87807 33974 ft 488 kts 30°
2026-05-07 14:28 45.04644 -0.82940 33959 ft 488 kts 30°
2026-05-07 14:28 45.10494 -0.78064 33960 ft 488 kts 30°
2026-05-07 14:29 45.16344 -0.73176 33972 ft 488 kts 30°
2026-05-07 14:29 45.22188 -0.68281 33971 ft 488 kts 30°
2026-05-07 14:30 45.28026 -0.63379 33971 ft 488 kts 30°
2026-05-07 14:30 45.33866 -0.58464 33975 ft 488 kts 30°
2026-05-07 14:31 45.39702 -0.53540 33966 ft 488 kts 30°
2026-05-07 14:31 45.45537 -0.48605 33981 ft 487 kts 30°
2026-05-07 14:32 45.51365 -0.43665 33985 ft 487 kts 30°
2026-05-07 14:32 45.57195 -0.38709 33966 ft 487 kts 30°
2026-05-07 14:33 45.62030 -0.34590 33980 ft 487 kts 30°
2026-05-07 14:33 45.67841 -0.29598 33982 ft 487 kts 31°
2026-05-07 14:34 45.73546 -0.24376 33991 ft 487 kts 32°
2026-05-07 14:34 45.79218 -0.19081 33988 ft 486 kts 32°
2026-05-07 14:35 45.84895 -0.13802 33983 ft 486 kts 32°
2026-05-07 14:35 45.90586 -0.08526 33991 ft 486 kts 32°
2026-05-07 14:36 45.96267 -0.03256 33988 ft 486 kts 32°
2026-05-07 14:36 46.01943 0.02024 33989 ft 486 kts 32°
2026-05-07 14:37 46.07615 0.07316 33979 ft 486 kts 32°
2026-05-07 14:37 46.16122 0.15277 33980 ft 485 kts 32°
2026-05-07 14:38 46.21785 0.20594 33991 ft 485 kts 32°
2026-05-07 14:38 46.27439 0.25916 33985 ft 485 kts 32°
2026-05-07 14:39 46.33089 0.31246 33993 ft 485 kts 32°
2026-05-07 14:39 46.38729 0.36581 33990 ft 484 kts 32°
2026-05-07 14:40 46.44371 0.41932 33992 ft 484 kts 32°
2026-05-07 14:40 46.50006 0.47288 33993 ft 484 kts 32°
2026-05-07 14:41 46.55729 0.52385 33985 ft 481 kts 23°
2026-05-07 14:41 46.62055 0.55242 34009 ft 475 kts
2026-05-07 14:42 46.68514 0.57230 33993 ft 475 kts
2026-05-07 14:42 46.74980 0.59312 33992 ft 475 kts 10°
2026-05-07 14:43 46.81372 0.61426 33995 ft 474 kts 10°
2026-05-07 14:43 46.87843 0.63580 33999 ft 474 kts 10°
2026-05-07 14:44 46.94267 0.65718 33998 ft 473 kts 10°
2026-05-07 14:44 47.00680 0.67856 34001 ft 472 kts 10°
2026-05-07 14:45 47.07113 0.69673 33996 ft 468 kts
2026-05-07 14:45 47.13603 0.70273 33993 ft 467 kts
2026-05-07 14:46 47.20092 0.70823 34002 ft 467 kts
2026-05-07 14:46 47.26569 0.71468 34004 ft 466 kts
2026-05-07 14:47 47.33047 0.72153 34006 ft 466 kts
2026-05-07 14:47 47.39515 0.72837 34005 ft 466 kts
2026-05-07 14:48 47.45979 0.73518 34007 ft 466 kts
2026-05-07 14:48 47.52385 0.75030 34007 ft 470 kts 16°
2026-05-07 14:49 47.58566 0.78201 34000 ft 470 kts 17°
2026-05-07 14:49 47.64759 0.81338 34008 ft 470 kts 16°
2026-05-07 14:50 47.70958 0.84402 34012 ft 470 kts 16°
2026-05-07 14:50 47.77162 0.87460 34014 ft 469 kts 16°
2026-05-07 14:51 47.83361 0.90529 34004 ft 469 kts 16°
2026-05-07 14:51 47.89552 0.93637 34014 ft 469 kts 17°
2026-05-07 14:52 47.95730 0.96771 34012 ft 469 kts 17°
2026-05-07 14:52 48.01907 0.99908 34018 ft 469 kts 17°
2026-05-07 14:53 48.08075 1.03045 34015 ft 468 kts 17°
2026-05-07 14:53 48.14243 1.06189 34016 ft 468 kts 17°
2026-05-07 14:54 48.20400 1.09335 34019 ft 467 kts 17°
2026-05-07 14:54 48.26551 1.12474 34026 ft 467 kts 17°
2026-05-07 14:55 48.32700 1.15606 34025 ft 467 kts 17°
2026-05-07 14:55 48.38852 1.18750 34021 ft 466 kts 17°
2026-05-07 14:56 48.44995 1.21900 34024 ft 466 kts 17°
2026-05-07 14:56 48.51132 1.25054 34024 ft 466 kts 17°
2026-05-07 14:57 48.57266 1.28206 34027 ft 465 kts 17°
2026-05-07 14:57 48.63412 1.31300 34037 ft 465 kts 16°
2026-05-07 14:58 48.69552 1.34386 34033 ft 465 kts 17°
2026-05-07 14:58 48.75683 1.37485 34032 ft 465 kts 17°
2026-05-07 14:59 48.81815 1.40599 34035 ft 464 kts 17°
2026-05-07 14:59 48.87941 1.43717 34043 ft 464 kts 17°
2026-05-07 15:00 48.94074 1.46847 34043 ft 464 kts 17°
2026-05-07 15:00 49.00276 1.49489 34041 ft 461 kts
2026-05-07 15:01 49.06634 1.50804 34041 ft 461 kts
2026-05-07 15:01 49.12990 1.52210 34050 ft 462 kts
2026-05-07 15:02 49.19339 1.53705 34054 ft 462 kts
2026-05-07 15:02 49.25562 1.56150 34057 ft 466 kts 24°
2026-05-07 15:03 49.30853 1.61907 34068 ft 473 kts 45°
2026-05-07 15:03 49.35512 1.69224 34060 ft 484 kts 43°
2026-05-07 15:04 49.40421 1.76291 34049 ft 484 kts 42°
2026-05-07 15:04 49.45316 1.83384 34049 ft 483 kts 43°
2026-05-07 15:05 49.50172 1.90534 34056 ft 483 kts 43°
2026-05-07 15:05 49.55019 1.97692 34056 ft 483 kts 43°
2026-05-07 15:06 49.59861 2.04856 34057 ft 482 kts 43°
2026-05-07 15:06 49.64700 2.12035 34057 ft 482 kts 43°
2026-05-07 15:07 49.69501 2.19182 34050 ft 474 kts 43°
2026-05-07 15:07 49.74208 2.26210 34059 ft 469 kts 43°
2026-05-07 15:08 49.78898 2.33230 34065 ft 469 kts 43°
2026-05-07 15:08 49.83586 2.40267 34059 ft 469 kts 43°
2026-05-07 15:09 49.88254 2.47296 33848 ft 462 kts 43°
2026-05-07 15:09 49.90548 2.50759 33150 ft 460 kts 43°
2026-05-07 15:09 49.92852 2.54237 32262 ft 464 kts 43°
2026-05-07 15:10 49.95174 2.57748 31356 ft 469 kts 43°
2026-05-07 15:10 49.96724 2.60097 30816 ft 471 kts 43°
2026-05-07 15:10 49.99065 2.63659 30196 ft 468 kts 43°
2026-05-07 15:10 50.01370 2.67177 29644 ft 462 kts 43°
2026-05-07 15:11 50.03650 2.70664 29053 ft 456 kts 43°
2026-05-07 15:11 50.05899 2.74108 28432 ft 452 kts 43°
2026-05-07 15:11 50.08131 2.77529 27827 ft 448 kts 43°
2026-05-07 15:11 50.10338 2.80915 27229 ft 444 kts 43°
2026-05-07 15:12 50.12525 2.84275 26653 ft 440 kts 43°
2026-05-07 15:12 50.14693 2.87609 26091 ft 436 kts 43°
2026-05-07 15:12 50.16840 2.90916 25531 ft 432 kts 44°
2026-05-07 15:12 50.18969 2.94200 24995 ft 429 kts 44°
2026-05-07 15:13 50.21079 2.97458 24471 ft 425 kts 44°
2026-05-07 15:13 50.23178 3.00704 23941 ft 422 kts 44°
2026-05-07 15:13 50.25254 3.03918 23378 ft 419 kts 44°
2026-05-07 15:13 50.27318 3.07118 22784 ft 416 kts 44°
2026-05-07 15:14 50.29361 3.10290 22226 ft 412 kts 44°
2026-05-07 15:14 50.31385 3.13436 21678 ft 408 kts 44°
2026-05-07 15:14 50.33388 3.16553 21139 ft 405 kts 44°
2026-05-07 15:14 50.35379 3.19656 20609 ft 401 kts 44°
2026-05-07 15:15 50.37343 3.22719 20145 ft 397 kts 44°
2026-05-07 15:15 50.39270 3.25730 20012 ft 383 kts 44°
2026-05-07 15:15 50.41120 3.28622 19967 ft 369 kts 44°
2026-05-07 15:15 50.42903 3.31404 19961 ft 354 kts 44°
2026-05-07 15:16 50.44616 3.34074 19956 ft 340 kts 44°
2026-05-07 15:16 50.46259 3.36638 19951 ft 328 kts 44°
2026-05-07 15:16 50.47843 3.39112 19956 ft 315 kts 44°
2026-05-07 15:16 50.49368 3.41497 19889 ft 303 kts 44°
2026-05-07 15:17 50.50844 3.43807 19612 ft 295 kts 44°
2026-05-07 15:17 50.52288 3.46068 19225 ft 293 kts 44°
2026-05-07 15:17 50.53729 3.48328 18777 ft 292 kts 44°
2026-05-07 15:17 50.55183 3.50507 18299 ft 293 kts 37°
2026-05-07 15:18 50.56825 3.52414 17704 ft 295 kts 33°
2026-05-07 15:18 50.58567 3.54257 16669 ft 311 kts 32°
2026-05-07 15:18 50.60420 3.56204 15521 ft 331 kts 33°
2026-05-07 15:18 50.62394 3.58305 14559 ft 350 kts 33°
2026-05-07 15:19 50.64431 3.60510 13791 ft 358 kts 34°
2026-05-07 15:19 50.66489 3.62762 12951 ft 365 kts 34°
2026-05-07 15:19 50.68566 3.65051 12685 ft 355 kts 34°
2026-05-07 15:19 50.70545 3.67237 12646 ft 339 kts 34°
2026-05-07 15:20 50.72435 3.69327 12624 ft 324 kts 34°
2026-05-07 15:20 50.74241 3.71326 12518 ft 313 kts 34°
2026-05-07 15:20 50.76023 3.73301 12142 ft 312 kts 34°
2026-05-07 15:20 50.77792 3.75268 11798 ft 311 kts 35°
2026-05-07 15:21 50.79556 3.77232 11450 ft 310 kts 35°
2026-05-07 15:21 50.81322 3.79202 11091 ft 310 kts 35°
2026-05-07 15:21 50.83078 3.81164 10732 ft 309 kts 35°
2026-05-07 15:21 50.84808 3.83095 10391 ft 308 kts 35°
2026-05-07 15:22 50.86572 3.85066 10054 ft 306 kts 35°
2026-05-07 15:22 50.88130 3.87269 9651 ft 305 kts 55°
2026-05-07 15:22 50.89179 3.90145 9309 ft 296 kts 61°
2026-05-07 15:22 50.90219 3.92924 8934 ft 293 kts 59°
2026-05-07 15:23 50.91287 3.95668 8631 ft 290 kts 58°
2026-05-07 15:23 50.92336 3.98360 8385 ft 286 kts 59°
2026-05-07 15:23 50.93180 4.01192 8114 ft 283 kts 71°
2026-05-07 15:23 50.93618 4.03165 7938 ft 280 kts 71°
2026-05-07 15:24 50.93810 4.04024 7864 ft 279 kts 71°
2026-05-07 15:24 50.94371 4.06527 7633 ft 277 kts 71°
2026-05-07 15:24 50.95016 4.09389 7379 ft 274 kts 71°
2026-05-07 15:24 50.95656 4.12213 7131 ft 271 kts 70°
2026-05-07 15:25 50.96290 4.15007 6875 ft 268 kts 70°
2026-05-07 15:25 50.96921 4.17781 6624 ft 266 kts 70°
2026-05-07 15:25 50.97545 4.20527 6380 ft 263 kts 70°
2026-05-07 15:25 50.98162 4.23240 6110 ft 261 kts 70°
2026-05-07 15:26 50.98777 4.25940 5842 ft 259 kts 70°
2026-05-07 15:26 50.99384 4.28612 5585 ft 257 kts 70°
2026-05-07 15:26 50.99987 4.31268 5342 ft 254 kts 70°
2026-05-07 15:26 51.00584 4.33898 5078 ft 252 kts 70°
2026-05-07 15:27 51.01176 4.36509 4855 ft 249 kts 70°
2026-05-07 15:27 51.01758 4.39081 4640 ft 246 kts 70°
2026-05-07 15:27 51.02331 4.41616 4427 ft 243 kts 70°
2026-05-07 15:27 51.02898 4.44128 4212 ft 239 kts 70°
2026-05-07 15:28 51.03456 4.46601 4002 ft 236 kts 70°
2026-05-07 15:28 51.03998 4.49006 3799 ft 233 kts 70°
2026-05-07 15:28 51.04542 4.51423 3596 ft 230 kts 70°
2026-05-07 15:28 51.05087 4.53843 3386 ft 228 kts 70°
2026-05-07 15:29 51.05408 4.56234 3131 ft 223 kts 96°
2026-05-07 15:29 51.04806 4.58377 2927 ft 208 kts 129°
2026-05-07 15:29 51.03938 4.60131 2693 ft 196 kts 125°
2026-05-07 15:29 51.03189 4.61836 2431 ft 182 kts 124°
2026-05-07 15:30 51.02506 4.63439 2197 ft 169 kts 123°
2026-05-07 15:30 51.01854 4.64992 2164 ft 170 kts 123°
2026-05-07 15:30 51.01202 4.66556 2111 ft 168 kts 123°
2026-05-07 15:30 51.00567 4.68081 2100 ft 165 kts 123°
2026-05-07 15:31 50.99932 4.69614 2114 ft 167 kts 123°
2026-05-07 15:31 50.99202 4.71040 2084 ft 167 kts 146°
2026-05-07 15:31 50.98114 4.71233 2118 ft 161 kts 204°
2026-05-07 15:31 50.97204 4.70134 2137 ft 170 kts 217°
2026-05-07 15:32 50.96189 4.69214 2103 ft 162 kts 207°
2026-05-07 15:32 50.95237 4.68353 2068 ft 154 kts 210°
2026-05-07 15:32 50.94337 4.67513 2145 ft 150 kts 210°
2026-05-07 15:32 50.93440 4.66643 2116 ft 150 kts 217°
2026-05-07 15:33 50.92882 4.65295 2062 ft 152 kts 252°
2026-05-07 15:33 50.92541 4.63662 1793 ft 154 kts 250°
2026-05-07 15:33 50.92163 4.62092 1583 ft 151 kts 249°
2026-05-07 15:33 50.91804 4.60557 1393 ft 147 kts 250°
2026-05-07 15:34 50.91449 4.59033 1205 ft 148 kts 250°
2026-05-07 15:34 50.91093 4.57496 1005 ft 149 kts 250°
2026-05-07 15:34 50.90735 4.55949 813 ft 150 kts 250°
2026-05-07 15:34 50.90376 4.54396 562 ft 152 kts 251°
2026-05-07 15:35 50.90017 4.52829 285 ft 149 kts 250°
2026-05-07 15:35 50.89667 4.51334 175 ft 137 kts 249°
2026-05-07 15:35 50.89385 4.50126 176 ft 91 kts 250°
2026-05-07 15:35 50.89347 4.49720 175 ft 21 kts 305°
2026-05-07 15:36 50.89404 4.49601 168 ft 1 kts 307°
2026-05-07 15:36 50.89419 4.49570 167 ft 5 kts 307°
2026-05-07 15:36 50.89477 4.49449 164 ft 25 kts 308°
2026-05-07 15:36 50.89566 4.49262 157 ft 4 kts 309°
2026-05-07 15:37 50.89606 4.49177 154 ft 17 kts 309°
2026-05-07 15:37 50.89726 4.49178 146 ft 20 kts 14°
2026-05-07 15:37 50.89870 4.49238 138 ft 23 kts 15°
2026-05-07 15:37 50.90027 4.49302 129 ft 23 kts 13°
2026-05-07 15:38 50.90193 4.49368 128 ft 31 kts 14°
2026-05-07 15:38 50.90350 4.49380 122 ft 13 kts 297°
2026-05-07 15:38 50.90488 4.49249 119 ft 26 kts 335°
2026-05-07 15:38 50.90613 4.49160 118 ft 20 kts 335°
2026-05-07 15:39 50.90625 4.49004 115 ft 16 kts 245°
2026-05-07 15:39 50.90573 4.48818 117 ft 21 kts 245°
2026-05-07 15:39 50.90511 4.48606 119 ft 21 kts 245°
2026-05-07 15:39 50.90451 4.48398 118 ft 20 kts 246°
2026-05-07 15:40 50.90405 4.48247 118 ft 8 kts 246°
2026-05-07 15:40 50.90374 4.48210 120 ft 3 kts 162°
2026-05-07 15:40 50.90353 4.48229 120 ft 4 kts 157°
2026-05-07 15:40 50.90313 4.48257 118 ft 0 kts 156°